FW4241 Weather Reports


Display with metric or nautical units.
time (UTC)temp
F
wind
direction
speed
MPH
gust
MPH
rain 1hr
in
rain 24hr
in
rain mn
in
humidity
%
barometer
mb
20260507084540 54 221 0.0 1.0 0.00 0.00 0.00 80 1021.7
20260507083038 54 233 0.0 2.0 0.00 0.00 0.00 80 1021.7
20260507081535 54 245 0.0 3.0 0.00 0.00 0.00 80 1021.8
20260507080037 54 278 0.0 2.0 0.00 0.00 0.00 82 1021.8
20260507074537 54 226 0.0 1.0 0.00 0.00 0.00 82 1021.8
20260507073039 54 233 0.0 4.0 0.00 0.00 0.00 81 1021.8
20260507071531 54 164 0.0 1.0 0.00 0.00 0.00 82 1021.7
20260507070031 55 247 0.0 1.0 0.00 0.00 0.00 82 1021.5
20260507064529 55 127 0.0 5.0 0.00 0.00 0.00 81 1021.8
20260507063039 55 254 1.0 5.0 0.00 0.00 0.00 81 1021.7
20260507061556 55 236 0.0 2.0 0.00 0.00 0.00 81 1021.8
20260507060056 55 264 1.0 4.0 0.00 0.00 0.00 81 1021.8
20260507054523 55 236 0.0 3.0 0.00 0.00 0.00 81 1021.8
20260507053022 55 257 1.0 4.0 0.00 0.00 0.00 80 1021.8
20260507051519 56 229 1.0 6.0 0.00 0.00 0.00 79 1021.8
20260507050017 56 66 1.0 4.0 0.00 0.00 0.00 79 1021.8
20260507044519 57 98 0.0 2.0 0.00 0.00 0.00 78 1021.8
20260507043015 57 262 0.0 5.0 0.00 0.00 0.00 78 1021.7
20260507041511 57 90 0.0 6.0 0.00 0.00 0.00 78 1021.4
20260507040011 58 243 1.0 4.0 0.00 0.00 0.00 77 1021.3
20260507034526 59 56 0.0 3.0 0.00 0.00 0.00 77 1020.9
20260507033011 59 238 0.0 5.0 0.00 0.00 0.00 78 1020.8
20260507031506 59 282 0.0 5.0 0.00 0.00 0.00 78 1020.6
20260507030010 60 321 0.0 2.0 0.00 0.00 0.00 77 1020.4
20260507024505 61 306 1.0 4.0 0.00 0.00 0.00 76 1020.2
20260507023005 62 78 0.0 3.0 0.00 0.00 0.00 74 1020.1
20260507021504 63 105 0.0 3.0 0.00 0.00 0.00 72 1020.1
20260507020001 64 84 1.0 4.0 0.00 0.00 0.00 71 1020.2
20260507014604 65 274 0.0 9.0 0.00 0.00 0.00 71 1020.4
20260507013118 66 186 0.0 2.0 0.00 0.00 0.00 70 1020.3
20260507011610 66 295 1.0 6.0 0.00 0.00 0.00 69 1020.2
20260507010107 67 219 0.0 5.0 0.00 0.00 0.00 69 1020.2
20260507004556 68 263 0.0 5.0 0.00 0.00 0.00 70 1020.1
20260507003055 68 51 0.0 3.0 0.00 0.00 0.00 69 1019.9
20260507001557 68 248 0.0 4.0 0.00 0.00 0.00 69 1020.1
20260507000052 69 276 0.0 4.0 0.00 0.00 0.00 66 1020.0
20260506234551 69 269 1.0 4.0 0.00 0.00 0.00 66 1019.9
20260506233103 69 91 0.0 3.0 0.00 0.00 0.00 66 1019.9
20260506231548 69 101 0.0 2.0 0.00 0.00 0.00 66 1020.1
20260506230042 68 272 0.0 4.0 0.00 0.00 0.00 68 1020.2
20260506224541 68 184 1.0 6.0 0.00 0.00 0.00 67 1020.4
20260506223039 67 270 1.0 4.0 0.00 0.00 0.00 68 1020.5
20260506221539 67 254 0.0 3.0 0.00 0.00 0.00 69 1020.6
20260506220039 67 261 1.0 6.0 0.00 0.00 0.00 70 1020.6
20260506214535 66 246 0.0 5.0 0.00 0.00 0.00 72 1020.6
20260506213032 65 146 1.0 5.0 0.00 0.00 0.00 73 1020.8
20260506211531 64 51 2.0 7.0 0.00 0.00 0.00 75 1020.9
20260506210036 64 217 0.0 4.0 0.00 0.00 0.00 75 1021.1
20260506204532 65 105 0.0 4.0 0.00 0.00 0.00 74 1021.0
20260506203024 64 129 1.0 3.0 0.00 0.00 0.00 75 1020.9
20260506201527 64 119 1.0 3.0 0.00 0.00 0.00 75 1021.0
20260506200034 62 145 0.0 3.0 0.00 0.00 0.00 77 1021.1
20260506194520 62 224 3.0 6.0 0.00 0.00 0.00 77 1021.3
20260506193016 63 212 1.0 5.0 0.00 0.00 0.00 77 1021.4
20260506191514 62 231 2.0 4.0 0.00 0.00 0.00 77 1021.2
20260506190013 62 265 2.0 5.0 0.00 0.00 0.00 79 1021.3
20260506184511 61 218 0.0 3.0 0.00 0.00 0.00 79 1021.2
20260506183006 61 131 0.0 5.0 0.00 0.00 0.00 80 1021.2
20260506181504 59 224 1.0 4.0 0.00 0.00 0.00 81 1021.3
20260506180013 59 281 1.0 6.0 0.00 0.00 0.00 82 1021.3
20260506174502 59 276 0.0 2.0 0.00 0.00 0.00 81 1021.3
20260506173111 59 116 0.0 2.0 0.00 0.00 0.00 81 1021.0
20260506171605 59 272 0.0 2.0 0.00 0.00 0.00 82 1021.0
20260506164612 59 240 0.0 3.0 0.00 0.00 0.00 82 1021.0
20260506163057 59 11 0.0 2.0 0.00 0.00 0.00 82 1020.9
20260506161551 58 298 0.0 2.0 0.00 0.00 0.00 83 1020.8
20260506160055 58 227 0.0 2.0 0.00 0.00 0.00 83 1020.6
20260506154550 57 87 0.0 3.0 0.00 0.00 0.00 85 1020.1
20260506153039 56 63 0.0 2.0 0.00 0.00 0.00 85 1021.1
20260506151540 56 238 0.0 3.0 0.00 0.00 0.00 85 1021.1
20260506150038 56 279 0.0 3.0 0.00 0.00 0.00 86 1021.2
20260506144536 56 273 0.0 2.0 0.00 0.00 0.00 86 1020.9
20260506143035 56 257 0.0 1.0 0.00 0.00 0.00 86 1020.5
20260506141530 56 262 0.0 1.0 0.00 0.00 0.00 86 1020.0
20260506140031 56 262 0.0 1.0 0.00 0.00 0.00 87 1020.4
20260506134526 56 248 0.0 0.0 0.00 0.00 0.00 87 1020.2
20260506133022 56 248 0.0 0.0 0.00 0.00 0.00 87 1020.0
20260506131521 55 248 0.0 0.0 0.00 0.00 0.00 87 1019.7
20260506130021 56 248 0.0 0.0 0.00 0.00 0.00 87 1019.8
20260506124519 56 248 0.0 1.0 0.00 0.00 0.00 87 1019.7
20260506123021 56 248 0.0 1.0 0.00 0.00 0.00 87 1019.7
20260506121516 56 248 0.0 1.0 0.00 0.00 0.00 87 1019.7
20260506120014 56 248 0.0 2.0 0.00 0.00 0.00 86 1019.7
20260506114512 56 221 0.0 1.0 0.00 0.00 0.00 86 1019.5
20260506113011 56 278 0.0 5.0 0.00 0.00 0.00 86 1019.4
20260506111541 56 247 0.0 2.0 0.00 0.00 0.00 86 1019.3
20260506110037 56 264 0.0 1.0 0.00 0.00 0.00 86 1019.0
20260506104534 56 245 0.0 1.0 0.00 0.00 0.00 85 1018.7
20260506103035 57 262 0.0 1.0 0.00 0.00 0.00 86 1018.6
20260506101530 57 44 0.0 0.0 0.00 0.00 0.00 86 1018.3
20260506100033 57 44 0.0 0.0 0.00 0.00 0.00 86 1018.2
20260506094533 57 44 0.0 0.0 0.00 0.00 0.00 86 1018.2
20260506093041 57 46 0.0 0.0 0.00 0.00 0.00 86 1018.1
20260506091525 57 46 0.0 0.0 0.00 0.00 0.00 87 1018.1
20260506090022 57 46 0.0 0.0 0.00 0.00 0.00 87 1018.0